Patterson, LA

8:07 PM CST on November 13, 2019 (GMT -0600)
Williams Memorial

Weather History for KPTN - September, 2019

Change the Weather History Date:

Monday, September 2, 2019

  Actual Average Record
Temperature  
Mean Temperature 83 °F -  
Max Temperature 91 °F 86 °F 98 °F (2000)
Min Temperature 75 °F 72 °F 68 °F (2004)
Cooling Degree Days 18    
Growing Degree Days 33 (Base 50)    
Moisture  
Dew Point 76 °F    
Average Humidity 83    
Maximum Humidity 97    
Minimum Humidity 58    
Precipitation  
Precipitation 0.00 in - - ()
Sea Level Pressure  
Sea Level Pressure 29.96 in    
Wind  
Wind Speed 5 mph (NE)    
Max Wind Speed 13 mph    
Max Gust Speed -    
Visibility 10 miles    
Events      
Averages and records for this station are not official NWS values.
T = Trace of Precipitation, MM = Missing Value Source: NWS Daily Summary

Daily Weather History Graph

Daily Weather History Graph

Search for Another Location

Airport or City:

Astronomy

Sep. 02, 2019 Rise Set
Actual Time 6:43 AM CDT 7:26 PM CDT
Civil Twilight 6:18 AM CDT 7:50 PM CDT
Nautical Twilight 5:50 AM CDT 8:19 PM CDT
Astronomical Twilight 5:21 AM CDT 8:48 PM CDT
Moon 10:10 AM CDT (9/2) 10:05 PM CDT (9/2)
Length of Visible Light 13h 32m
Length of Day
12h 43m
Waxing Crescent, 15% of the Moon is Illuminated
Sep 2
Waxing Crescent
Sep 5
First Quarter
Sep 13
Full
Sep 21
Last Quarter
Sep 28
New

Hourly Weather History & Observations

Time (CDT) Temp. Heat Index Dew Point Humidity Pressure Visibility Wind Dir Wind Speed Gust Speed Precip Events Conditions
12:56 AM 77.0 °F - 75.9 °F 96% 29.99 in 10.0 mi Calm Calm - N/A   Clear
1:56 AM 77.0 °F - 75.9 °F 96% 29.98 in 10.0 mi Calm Calm - N/A   Clear
2:56 AM 77.0 °F - 75.9 °F 96% 29.97 in 7.0 mi NNE 3.5 mph - N/A   Clear
3:56 AM 77.0 °F - 75.9 °F 96% 29.97 in 10.0 mi NNE 4.6 mph - N/A   Clear
5:56 AM 75.9 °F - 75.0 °F 97% 29.98 in 10.0 mi NNE 4.6 mph - N/A   Clear
6:56 AM 75.9 °F - 75.0 °F 97% 29.99 in 10.0 mi NNE 6.9 mph - N/A   Clear
7:56 AM 78.1 °F - 75.9 °F 93% 30.01 in 10.0 mi NE 6.9 mph - N/A   Clear
8:56 AM 82.0 °F 89.4 °F 75.9 °F 82% 30.00 in 10.0 mi NNE 10.4 mph - N/A   Clear
9:56 AM 84.9 °F 93.3 °F 75.0 °F 72% 30.01 in 10.0 mi NNE 12.7 mph - N/A   Clear
10:56 AM 87.1 °F 97.3 °F 75.9 °F 69% 30.01 in 10.0 mi ENE 11.5 mph - N/A   Clear
11:56 AM 90.0 °F 102.5 °F 77.0 °F 65% 30.00 in 10.0 mi NE 9.2 mph - N/A   Scattered Clouds
12:56 PM 90.0 °F 101.3 °F 75.9 °F 63% 29.98 in 10.0 mi NE 9.2 mph - N/A   Mostly Cloudy
1:56 PM 91.0 °F 102.9 °F 75.9 °F 61% 29.97 in 10.0 mi NNE 11.5 mph - N/A   Scattered Clouds
2:56 PM 91.9 °F 103.2 °F 75.0 °F 58% 29.94 in 10.0 mi NNE 9.2 mph - N/A   Scattered Clouds
3:56 PM 91.9 °F 103.9 °F 75.9 °F 59% 29.93 in 10.0 mi NNE 10.4 mph - N/A   Scattered Clouds
4:56 PM 86.0 °F 95.1 °F 75.0 °F 70% 29.94 in 10.0 mi ESE 10.4 mph - N/A   Mostly Cloudy
5:56 PM 84.9 °F 96.6 °F 78.1 °F 80% 29.92 in 10.0 mi East 5.8 mph - 0.00 in   Clear
6:56 PM 82.9 °F 92.8 °F 78.1 °F 85% 29.92 in 10.0 mi ENE 3.5 mph - N/A   Clear
7:50 PM 82.4 °F 92.4 °F 78.8 °F 89% 29.92 in 10.0 mi East 3.5 mph - N/A   Partly Cloudy
7:56 PM 82.0 °F 91.0 °F 78.1 °F 88% 29.92 in 10.0 mi ESE 3.5 mph - N/A   Partly Cloudy
8:56 PM 80.1 °F 86.4 °F 78.1 °F 94% 29.93 in 10.0 mi ENE 3.5 mph - N/A   Partly Cloudy
9:56 PM 80.1 °F 86.4 °F 78.1 °F 94% 29.94 in 10.0 mi ENE 3.5 mph - N/A   Partly Cloudy
10:56 PM 79.0 °F - 78.1 °F 97% 29.95 in 10.0 mi Calm Calm - N/A   Clear
11:56 PM 79.0 °F - 77.0 °F 94% 29.94 in 10.0 mi NNE 3.5 mph - N/A   Clear